| time (UTC) | temp F | wind direction | speed MPH | gust MPH | rain 1hr in | rain 24hr in | rain mn in | humidity % | barometer mb |
| 20260504050259 | 48 | 267 | 0.0 | 0.0 | 0.00 | 0.00 | 0.00 | 76 | 1233.4 |
| 20260504045756 | 48 | 267 | 0.0 | 0.0 | 0.00 | 0.00 | 0.00 | 75 | 1233.4 |
| 20260504045256 | 48 | 267 | 0.0 | 0.0 | 0.00 | 0.00 | 0.00 | 73 | 1233.4 |
| 20260504044754 | 48 | 267 | 0.0 | 0.0 | 0.00 | 0.00 | 0.00 | 72 | 1233.4 |
| 20260504044251 | 49 | 267 | 0.0 | 0.0 | 0.00 | 0.00 | 0.00 | 74 | 1233.4 |
| 20260504043748 | 49 | 267 | 0.0 | 0.0 | 0.00 | 0.00 | 0.00 | 74 | 1233.4 |
| 20260504043245 | 50 | 267 | 0.0 | 0.0 | 0.00 | 0.00 | 0.00 | 73 | 1233.4 |
| 20260504042743 | 49 | 266 | 0.0 | 0.0 | 0.00 | 0.00 | 0.00 | 71 | 1233.4 |
| 20260504042239 | 50 | 266 | 0.0 | 0.0 | 0.00 | 0.00 | 0.00 | 71 | 1233.4 |
| 20260504041736 | 50 | 267 | 0.0 | 0.0 | 0.00 | 0.00 | 0.00 | 69 | 1233.4 |
| 20260504041231 | 50 | 267 | 0.0 | 0.0 | 0.00 | 0.00 | 0.00 | 66 | 1233.4 |
| 20260504040728 | 50 | 267 | 0.0 | 0.0 | 0.00 | 0.00 | 0.00 | 68 | 1233.4 |
| 20260504040225 | 50 | 267 | 0.0 | 0.0 | 0.00 | 0.00 | 0.00 | 71 | 1233.4 |
| 20260504035721 | 50 | 267 | 0.0 | 0.0 | 0.00 | 0.00 | 0.00 | 70 | 1233.4 |
| 20260504035219 | 50 | 267 | 0.0 | 0.0 | 0.00 | 0.00 | 0.00 | 70 | 1233.4 |
| 20260504034716 | 51 | 267 | 0.0 | 0.0 | 0.00 | 0.00 | 0.00 | 69 | 1233.4 |
| 20260504034213 | 51 | 267 | 0.0 | 0.0 | 0.00 | 0.00 | 0.00 | 69 | 1233.4 |
| 20260504033711 | 51 | 267 | 0.0 | 0.0 | 0.00 | 0.00 | 0.00 | 69 | 1233.4 |
| 20260504033208 | 51 | 267 | 0.0 | 0.0 | 0.00 | 0.00 | 0.00 | 68 | 1233.4 |
| 20260504032705 | 52 | 267 | 0.0 | 0.0 | 0.00 | 0.00 | 0.00 | 67 | 1233.4 |
| 20260504032202 | 53 | 267 | 0.0 | 0.0 | 0.00 | 0.00 | 0.00 | 64 | 1233.4 |
| 20260504031659 | 53 | 267 | 0.0 | 0.0 | 0.00 | 0.00 | 0.00 | 63 | 1233.4 |
| 20260504031155 | 54 | 267 | 0.0 | 0.0 | 0.00 | 0.00 | 0.00 | 58 | 1233.4 |
| 20260504030652 | 54 | 267 | 0.0 | 0.0 | 0.00 | 0.00 | 0.00 | 58 | 1233.4 |
| 20260504030148 | 54 | 267 | 0.0 | 0.0 | 0.00 | 0.00 | 0.00 | 59 | 1233.4 |
| 20260504025645 | 55 | 267 | 0.0 | 0.0 | 0.00 | 0.00 | 0.00 | 57 | 1233.4 |
| 20260504025142 | 55 | 267 | 0.0 | 0.0 | 0.00 | 0.00 | 0.00 | 55 | 1233.4 |
| 20260504024640 | 56 | 267 | 0.0 | 0.0 | 0.00 | 0.00 | 0.00 | 55 | 1233.4 |
| 20260504024136 | 56 | 267 | 0.0 | 0.0 | 0.00 | 0.00 | 0.00 | 53 | 1233.4 |
| 20260504023633 | 56 | 267 | 0.0 | 0.0 | 0.00 | 0.00 | 0.00 | 54 | 1233.4 |
| 20260504023129 | 57 | 267 | 0.0 | 0.0 | 0.00 | 0.00 | 0.00 | 53 | 1233.4 |
| 20260504022625 | 57 | 273 | 0.0 | 0.0 | 0.00 | 0.00 | 0.00 | 52 | 1233.4 |
| 20260504022121 | 58 | 264 | 0.0 | 0.0 | 0.00 | 0.00 | 0.00 | 52 | 1233.4 |
| 20260504021620 | 58 | 258 | 0.0 | 2.0 | 0.00 | 0.00 | 0.00 | 50 | 1233.4 |
| 20260504021116 | 58 | 256 | 0.0 | 0.0 | 0.00 | 0.00 | 0.00 | 50 | 1233.4 |
| 20260504020613 | 58 | 256 | 0.0 | 0.0 | 0.00 | 0.00 | 0.00 | 49 | 1233.4 |
| 20260504020109 | 58 | 256 | 0.0 | 0.0 | 0.00 | 0.00 | 0.00 | 53 | 1233.4 |
| 20260504015605 | 60 | 255 | 0.0 | 0.0 | 0.00 | 0.00 | 0.00 | 51 | 1233.4 |
| 20260504015101 | 60 | 272 | 0.0 | 0.0 | 0.00 | 0.00 | 0.00 | 47 | 1233.4 |
| 20260504014558 | 61 | 272 | 0.0 | 0.0 | 0.00 | 0.00 | 0.00 | 46 | 1233.4 |
| 20260504014055 | 61 | 272 | 0.0 | 0.0 | 0.00 | 0.00 | 0.00 | 45 | 1233.4 |
| 20260504013552 | 62 | 272 | 0.0 | 0.0 | 0.00 | 0.00 | 0.00 | 44 | 1233.4 |
| 20260504013049 | 62 | 272 | 0.0 | 0.0 | 0.00 | 0.00 | 0.00 | 42 | 1233.4 |
| 20260504012547 | 63 | 272 | 0.0 | 0.0 | 0.00 | 0.00 | 0.00 | 41 | 1233.4 |
| 20260504012045 | 64 | 272 | 0.0 | 0.0 | 0.00 | 0.00 | 0.00 | 40 | 1233.4 |
| 20260504011541 | 65 | 272 | 0.0 | 2.0 | 0.00 | 0.00 | 0.00 | 39 | 1233.4 |
| 20260504011037 | 65 | 275 | 0.0 | 2.0 | 0.00 | 0.00 | 0.00 | 37 | 1233.4 |
| 20260504010533 | 66 | 273 | 1.0 | 2.0 | 0.00 | 0.00 | 0.00 | 37 | 1233.4 |
| 20260504010029 | 66 | 274 | 0.0 | 0.0 | 0.00 | 0.00 | 0.00 | 37 | 1233.4 |
| 20260504005526 | 67 | 274 | 1.0 | 2.0 | 0.00 | 0.00 | 0.00 | 37 | 1233.4 |
| 20260504005024 | 68 | 274 | 1.0 | 2.0 | 0.00 | 0.00 | 0.00 | 36 | 1233.4 |
| 20260504004521 | 68 | 265 | 1.0 | 2.0 | 0.00 | 0.00 | 0.00 | 35 | 1233.4 |
| 20260504004018 | 69 | 266 | 1.0 | 2.0 | 0.00 | 0.00 | 0.00 | 33 | 1233.4 |
| 20260504003514 | 70 | 269 | 3.0 | 5.0 | 0.00 | 0.00 | 0.00 | 33 | 1233.4 |
| 20260504003011 | 70 | 277 | 2.0 | 3.0 | 0.00 | 0.00 | 0.00 | 32 | 1233.4 |
| 20260504002508 | 71 | 273 | 3.0 | 5.0 | 0.00 | 0.00 | 0.00 | 31 | 1233.4 |
| 20260504002005 | 71 | 282 | 5.0 | 6.0 | 0.00 | 0.00 | 0.00 | 30 | 1233.4 |
| 20260504001503 | 72 | 247 | 4.0 | 5.0 | 0.00 | 0.00 | 0.00 | 30 | 1233.4 |
| 20260504000959 | 72 | 285 | 7.0 | 10.0 | 0.00 | 0.00 | 0.00 | 30 | 1233.4 |
| 20260504000456 | 73 | 282 | 4.0 | 6.0 | 0.00 | 0.00 | 0.00 | 29 | 1233.4 |
| 20260503235953 | 73 | 291 | 3.0 | 5.0 | 0.00 | 0.00 | 0.00 | 28 | 1233.4 |
| 20260503235451 | 73 | 253 | 3.0 | 3.0 | 0.00 | 0.00 | 0.00 | 30 | 1233.4 |
| 20260503234948 | 73 | 291 | 3.0 | 5.0 | 0.00 | 0.00 | 0.00 | 29 | 1233.4 |
| 20260503234446 | 73 | 283 | 7.0 | 8.0 | 0.00 | 0.00 | 0.00 | 27 | 1233.4 |
| 20260503233944 | 74 | 269 | 4.0 | 5.0 | 0.00 | 0.00 | 0.00 | 27 | 1233.4 |
| 20260503233440 | 74 | 267 | 3.0 | 5.0 | 0.00 | 0.00 | 0.00 | 29 | 1233.4 |
| 20260503232936 | 74 | 262 | 4.0 | 5.0 | 0.00 | 0.00 | 0.00 | 28 | 1233.4 |
| 20260503232433 | 74 | 269 | 5.0 | 6.0 | 0.00 | 0.00 | 0.00 | 27 | 1233.4 |
| 20260503231932 | 74 | 285 | 4.0 | 5.0 | 0.00 | 0.00 | 0.00 | 28 | 1233.4 |
| 20260503231429 | 75 | 277 | 7.0 | 10.0 | 0.00 | 0.00 | 0.00 | 26 | 1233.4 |
| 20260503230925 | 75 | 266 | 4.0 | 6.0 | 0.00 | 0.00 | 0.00 | 27 | 1233.4 |
| 20260503230421 | 76 | 284 | 4.0 | 5.0 | 0.00 | 0.00 | 0.00 | 27 | 1233.4 |
| 20260503225919 | 76 | 268 | 6.0 | 8.0 | 0.00 | 0.00 | 0.00 | 27 | 1233.4 |
| 20260503225415 | 76 | 278 | 5.0 | 10.0 | 0.00 | 0.00 | 0.00 | 28 | 1233.4 |
| 20260503224911 | 75 | 268 | 7.0 | 13.0 | 0.00 | 0.00 | 0.00 | 27 | 1233.4 |
| 20260503224409 | 76 | 258 | 3.0 | 5.0 | 0.00 | 0.00 | 0.00 | 27 | 1233.4 |
| 20260503223906 | 75 | 338 | 4.0 | 5.0 | 0.00 | 0.00 | 0.00 | 27 | 1233.4 |
| 20260503223404 | 76 | 289 | 3.0 | 3.0 | 0.00 | 0.00 | 0.00 | 27 | 1233.4 |
| 20260503222859 | 76 | 296 | 5.0 | 6.0 | 0.00 | 0.00 | 0.00 | 27 | 1233.4 |
| 20260503222358 | 76 | 256 | 6.0 | 8.0 | 0.00 | 0.00 | 0.00 | 27 | 1233.4 |
| 20260503221856 | 75 | 268 | 5.0 | 6.0 | 0.00 | 0.00 | 0.00 | 28 | 1233.4 |
| 20260503221354 | 75 | 278 | 10.0 | 13.0 | 0.00 | 0.00 | 0.00 | 26 | 1233.4 |
| 20260503220850 | 76 | 279 | 8.0 | 10.0 | 0.00 | 0.00 | 0.00 | 27 | 1233.4 |
| 20260503220347 | 76 | 298 | 5.0 | 6.0 | 0.00 | 0.00 | 0.00 | 27 | 1233.4 |
| 20260503215844 | 75 | 259 | 6.0 | 8.0 | 0.00 | 0.00 | 0.00 | 27 | 1233.4 |
| 20260503215341 | 76 | 279 | 6.0 | 8.0 | 0.00 | 0.00 | 0.00 | 29 | 1233.4 |
| 20260503214838 | 76 | 303 | 7.0 | 14.0 | 0.00 | 0.00 | 0.00 | 27 | 1233.4 |
| 20260503214336 | 76 | 245 | 4.0 | 8.0 | 0.00 | 0.00 | 0.00 | 29 | 1233.4 |
| 20260503213833 | 76 | 272 | 5.0 | 6.0 | 0.00 | 0.00 | 0.00 | 29 | 1233.4 |
| 20260503213331 | 75 | 273 | 8.0 | 11.0 | 0.00 | 0.00 | 0.00 | 28 | 1233.4 |
| 20260503212827 | 76 | 221 | 9.0 | 14.0 | 0.00 | 0.00 | 0.00 | 27 | 1233.4 |
| 20260503212325 | 76 | 261 | 2.0 | 3.0 | 0.00 | 0.00 | 0.00 | 30 | 1233.4 |
| 20260503211822 | 76 | 261 | 7.0 | 10.0 | 0.00 | 0.00 | 0.00 | 30 | 1233.4 |
| 20260503211319 | 76 | 297 | 11.0 | 18.0 | 0.00 | 0.00 | 0.00 | 30 | 1233.4 |
| 20260503210819 | 76 | 253 | 7.0 | 10.0 | 0.00 | 0.00 | 0.00 | 30 | 1233.4 |
| 20260503210317 | 77 | 284 | 4.0 | 5.0 | 0.00 | 0.00 | 0.00 | 30 | 1233.4 |
| 20260503205811 | 77 | 227 | 13.0 | 18.0 | 0.00 | 0.00 | 0.00 | 28 | 1233.4 |
| 20260503205308 | 77 | 312 | 13.0 | 18.0 | 0.00 | 0.00 | 0.00 | 29 | 1233.4 |
| 20260503204805 | 77 | 335 | 8.0 | 10.0 | 0.00 | 0.00 | 0.00 | 30 | 1233.4 |
| 20260503204303 | 76 | 283 | 6.0 | 8.0 | 0.00 | 0.00 | 0.00 | 29 | 1233.4 |
| 20260503203800 | 76 | 303 | 14.0 | 26.0 | 0.00 | 0.00 | 0.00 | 29 | 1233.4 |
| 20260503203257 | 76 | 258 | 8.0 | 11.0 | 0.00 | 0.00 | 0.00 | 30 | 1233.4 |
| 20260503202754 | 77 | 288 | 12.0 | 18.0 | 0.00 | 0.00 | 0.00 | 31 | 1233.4 |
| 20260503202252 | 77 | 269 | 9.0 | 13.0 | 0.00 | 0.00 | 0.00 | 28 | 1233.4 |
| 20260503201749 | 76 | 264 | 6.0 | 8.0 | 0.00 | 0.00 | 0.00 | 29 | 1233.4 |
| 20260503201247 | 76 | 294 | 8.0 | 11.0 | 0.00 | 0.00 | 0.00 | 30 | 1233.4 |
| 20260503200743 | 76 | 297 | 3.0 | 6.0 | 0.00 | 0.00 | 0.00 | 32 | 1233.4 |
| 20260503200239 | 76 | 280 | 6.0 | 10.0 | 0.00 | 0.00 | 0.00 | 29 | 1233.4 |
| 20260503195736 | 76 | 265 | 12.0 | 14.0 | 0.00 | 0.00 | 0.00 | 29 | 1233.4 |
| 20260503195233 | 77 | 266 | 5.0 | 6.0 | 0.00 | 0.00 | 0.00 | 29 | 1233.4 |
| 20260503194731 | 77 | 274 | 3.0 | 6.0 | 0.00 | 0.00 | 0.00 | 31 | 1233.4 |
| 20260503194226 | 76 | 261 | 7.0 | 13.0 | 0.00 | 0.00 | 0.00 | 30 | 1233.4 |
| 20260503193723 | 76 | 224 | 11.0 | 14.0 | 0.00 | 0.00 | 0.00 | 30 | 1233.4 |
| 20260503193219 | 76 | 280 | 18.0 | 24.0 | 0.00 | 0.00 | 0.00 | 31 | 1233.4 |
| 20260503192715 | 76 | 276 | 6.0 | 8.0 | 0.00 | 0.00 | 0.00 | 32 | 1233.4 |
| 20260503192210 | 76 | 272 | 7.0 | 10.0 | 0.00 | 0.00 | 0.00 | 33 | 1233.4 |
| 20260503191707 | 76 | 300 | 6.0 | 8.0 | 0.00 | 0.00 | 0.00 | 33 | 1233.4 |
| 20260503191204 | 75 | 282 | 8.0 | 10.0 | 0.00 | 0.00 | 0.00 | 33 | 1233.4 |
| 20260503190701 | 74 | 277 | 8.0 | 10.0 | 0.00 | 0.00 | 0.00 | 35 | 1233.4 |
| 20260503190158 | 75 | 298 | 8.0 | 11.0 | 0.00 | 0.00 | 0.00 | 34 | 1233.4 |
| 20260503185655 | 75 | 241 | 9.0 | 13.0 | 0.00 | 0.00 | 0.00 | 35 | 1233.4 |
| 20260503185150 | 75 | 277 | 10.0 | 14.0 | 0.00 | 0.00 | 0.00 | 36 | 1233.4 |
| 20260503184645 | 75 | 355 | 14.0 | 18.0 | 0.00 | 0.00 | 0.00 | 37 | 1233.4 |
| 20260503184142 | 75 | 272 | 5.0 | 6.0 | 0.00 | 0.00 | 0.00 | 38 | 1233.4 |
| 20260503183638 | 73 | 240 | 8.0 | 13.0 | 0.00 | 0.00 | 0.00 | 36 | 1233.4 |
| 20260503183136 | 73 | 240 | 8.0 | 10.0 | 0.00 | 0.00 | 0.00 | 38 | 1233.4 |
| 20260503182634 | 74 | 286 | 9.0 | 13.0 | 0.00 | 0.00 | 0.00 | 36 | 1233.4 |
| 20260503182132 | 74 | 269 | 6.0 | 8.0 | 0.00 | 0.00 | 0.00 | 38 | 1233.4 |
| 20260503181628 | 73 | 278 | 6.0 | 8.0 | 0.00 | 0.00 | 0.00 | 38 | 1233.4 |
| 20260503181125 | 72 | 268 | 7.0 | 8.0 | 0.00 | 0.00 | 0.00 | 39 | 1233.4 |
| 20260503180622 | 71 | 278 | 11.0 | 14.0 | 0.00 | 0.00 | 0.00 | 40 | 1233.4 |
| 20260503180120 | 72 | 303 | 12.0 | 14.0 | 0.00 | 0.00 | 0.00 | 40 | 1233.4 |
| 20260503175617 | 71 | 300 | 6.0 | 8.0 | 0.00 | 0.00 | 0.00 | 39 | 1233.4 |
| 20260503175114 | 71 | 285 | 9.0 | 11.0 | 0.00 | 0.00 | 0.00 | 39 | 1233.4 |
| 20260503174610 | 71 | 280 | 11.0 | 16.0 | 0.00 | 0.00 | 0.00 | 40 | 1233.4 |
| 20260503174108 | 71 | 267 | 3.0 | 5.0 | 0.00 | 0.00 | 0.00 | 43 | 1233.4 |
| 20260503173602 | 71 | 264 | 8.0 | 11.0 | 0.00 | 0.00 | 0.00 | 41 | 1233.4 |
| 20260503173059 | 71 | 240 | 11.0 | 13.0 | 0.00 | 0.00 | 0.00 | 40 | 1233.4 |
| 20260503172556 | 69 | 265 | 11.0 | 13.0 | 0.00 | 0.00 | 0.00 | 41 | 1233.4 |
| 20260503172054 | 70 | 260 | 4.0 | 6.0 | 0.00 | 0.00 | 0.00 | 42 | 1233.4 |
| 20260503171550 | 69 | 286 | 6.0 | 8.0 | 0.00 | 0.00 | 0.00 | 42 | 1233.4 |
| 20260503171047 | 69 | 327 | 13.0 | 19.0 | 0.00 | 0.00 | 0.00 | 40 | 1233.4 |
| 20260503170543 | 68 | 222 | 5.0 | 6.0 | 0.00 | 0.00 | 0.00 | 43 | 1233.4 |
| 20260503150936 | 60 | 208 | 9.0 | 13.0 | 0.00 | 0.00 | 0.00 | 47 | 1233.4 |
| 20260503150433 | 60 | 228 | 8.0 | 11.0 | 0.00 | 0.00 | 0.00 | 47 | 1233.4 |
| 20260503131326 | 55 | 226 | 2.0 | 5.0 | 0.00 | 0.00 | 0.00 | 52 | 1233.4 |
| 20260503130823 | 54 | 169 | 7.0 | 10.0 | 0.00 | 0.00 | 0.00 | 53 | 1233.4 |
| 20260503130321 | 54 | 239 | 2.0 | 3.0 | 0.00 | 0.00 | 0.00 | 55 | 1233.4 |
| 20260503110714 | 53 | 90 | 2.0 | 3.0 | 0.00 | 0.00 | 0.00 | 55 | 1233.4 |
| 20260503110211 | 53 | 179 | 0.0 | 0.0 | 0.00 | 0.00 | 0.00 | 53 | 1233.4 |
| 20260503100138 | 54 | 203 | 5.0 | 6.0 | 0.00 | 0.00 | 0.00 | 50 | 1233.4 |
| 20260503081527 | 51 | 139 | 2.0 | 3.0 | 0.00 | 0.00 | 0.00 | 58 | 1233.4 |
| 20260503081024 | 51 | 178 | 0.0 | 2.0 | 0.00 | 0.00 | 0.00 | 56 | 1233.4 |
| 20260503080520 | 51 | 126 | 4.0 | 5.0 | 0.00 | 0.00 | 0.00 | 55 | 1233.4 |
| 20260503072454 | 51 | 250 | 0.0 | 0.0 | 0.00 | 0.00 | 0.00 | 55 | 1233.4 |
| 20260503071951 | 52 | 289 | 1.0 | 2.0 | 0.00 | 0.00 | 0.00 | 54 | 1233.4 |
| 20260503071448 | 52 | 109 | 1.0 | 2.0 | 0.00 | 0.00 | 0.00 | 53 | 1233.4 |
| 20260503070944 | 52 | 196 | 2.0 | 3.0 | 0.00 | 0.00 | 0.00 | 52 | 1233.4 |
| 20260503070441 | 51 | 233 | 0.0 | 0.0 | 0.00 | 0.00 | 0.00 | 53 | 1233.4 |
| 20260503054900 | 51 | 189 | 4.0 | 6.0 | 0.00 | 0.00 | 0.00 | 51 | 1233.4 |
| 20260503054356 | 51 | 185 | 2.0 | 5.0 | 0.00 | 0.00 | 0.00 | 51 | 1233.4 |
| 20260503053854 | 51 | 273 | 2.0 | 3.0 | 0.00 | 0.00 | 0.00 | 50 | 1233.4 |
| 20260503053352 | 51 | 207 | 6.0 | 10.0 | 0.00 | 0.00 | 0.00 | 50 | 1233.4 |
| 20260503052848 | 51 | 240 | 2.0 | 3.0 | 0.00 | 0.00 | 0.00 | 51 | 1233.4 |
| 20260503052345 | 51 | 211 | 4.0 | 5.0 | 0.00 | 0.00 | 0.00 | 50 | 1233.4 |
| 20260503051841 | 51 | 245 | 2.0 | 5.0 | 0.00 | 0.00 | 0.00 | 49 | 1233.4 |
| 20260503051337 | 52 | 233 | 4.0 | 5.0 | 0.00 | 0.00 | 0.00 | 49 | 1233.4 |
| 20260503050835 | 52 | 216 | 6.0 | 10.0 | 0.00 | 0.00 | 0.00 | 48 | 1233.4 |